When you browse on this site, cookies collect data to enhance your experience and personalize the content and advertising you see.
Visit our Privacy Policy to learn more. By continuing to use the site, you agree to this use of cookies and data.
  • In Sweden
  • List of Countries
  • For 7 days
  • Water Temperature
  • Weather Map
  • Weather Widgets
  • user-avatar
    Login

    Hourly Weather Syrohnovo

    Today, 22 January, Wednesday

    Time Temperature Precipitation Wind Pressure Humidity
    00:00 0°C° 0 mm 5 mps 749 mmHg 71%
    01:00 0°C° 0 mm 5 mps 748 mmHg 72%
    02:00 0°C° 0 mm 5 mps 748 mmHg 73%
    03:00 0°C° 0 mm 5 mps 747 mmHg 74%
    04:00 0°C° 0 mm 5 mps 746 mmHg 75%
    05:00 0°C° 0 mm 5 mps 745 mmHg 76%
    06:00 0°C° 0.2 mm 5 mps 744 mmHg 81%
    07:00 -1°C° 0.2 mm 5 mps 744 mmHg 87%
    08:00 -1°C° 0.2 mm 5 mps 744 mmHg 92%
    09:00 -1°C° 0.3 mm 5 mps 744 mmHg 84%
    10:00 -1°C° 0.3 mm 6 mps 744 mmHg 77%
    11:00 -1°C° 0.3 mm 6 mps 744 mmHg 69%
    12:00 -1°C° 0.2 mm 6 mps 744 mmHg 67%
    13:00 -1°C° 0.2 mm 6 mps 744 mmHg 65%
    14:00 -1°C° 0.2 mm 5 mps 745 mmHg 63%
    15:00 -1°C° 0 mm 5 mps 745 mmHg 66%
    16:00 -2°C° 0 mm 5 mps 746 mmHg 70%
    17:00 -2°C° 0 mm 5 mps 746 mmHg 74%
    18:00 -2°C° 0 mm 5 mps 747 mmHg 76%
    19:00 -2°C° 0 mm 5 mps 747 mmHg 78%
    20:00 -2°C° 0 mm 5 mps 748 mmHg 79%
    21:00 -4°C° 0 mm 5 mps 749 mmHg 74%
    22:00 -4°C° 0 mm 6 mps 749 mmHg 70%
    23:00 -4°C° 0 mm 6 mps 750 mmHg 65%

    Tomorrow, 23 January, Thursday

    Time Temperature Precipitation Wind Pressure Humidity
    00:00 -4°C° 0 mm 6 mps 751 mmHg 64%
    01:00 -5°C° 0 mm 5 mps 752 mmHg 62%
    02:00 -5°C° 0 mm 5 mps 753 mmHg 61%
    03:00 -5°C° 0 mm 5 mps 753 mmHg 62%
    04:00 -5°C° 0 mm 5 mps 753 mmHg 63%
    05:00 -5°C° 0 mm 5 mps 753 mmHg 64%
    06:00 -4°C° 0 mm 4 mps 754 mmHg 66%
    07:00 -4°C° 0 mm 3 mps 754 mmHg 68%
    08:00 -4°C° 0 mm 3 mps 755 mmHg 69%
    09:00 -4°C° 0 mm 3 mps 755 mmHg 69%
    10:00 -3°C° 0 mm 4 mps 755 mmHg 69%
    11:00 -3°C° 0 mm 4 mps 756 mmHg 68%
    12:00 -2°C° 0 mm 4 mps 755 mmHg 66%
    13:00 -2°C° 0 mm 4 mps 755 mmHg 64%
    14:00 -1°C° 0 mm 4 mps 755 mmHg 61%
    15:00 -2°C° 0 mm 4 mps 755 mmHg 66%
    16:00 -2°C° 0 mm 3 mps 755 mmHg 71%
    17:00 -2°C° 0 mm 2 mps 755 mmHg 76%
    18:00 -2°C° 0 mm 3 mps 755 mmHg 77%
    19:00 -1°C° 0 mm 3 mps 755 mmHg 77%
    20:00 -1°C° 0 mm 3 mps 755 mmHg 78%
    21:00 -1°C° 0 mm 3 mps 754 mmHg 79%
    22:00 -2°C° 0 mm 4 mps 754 mmHg 80%
    23:00 -2°C° 0 mm 4 mps 753 mmHg 81%

    Day after tomorrow, 24 January, Friday

    Time Temperature Precipitation Wind Pressure Humidity
    00:00 -2°C° 0 mm 4 mps 752 mmHg 81%
    01:00 -1°C° 0 mm 4 mps 752 mmHg 81%
    02:00 -1°C° 0 mm 4 mps 751 mmHg 81%
    03:00 0°C° 0 mm 4 mps 750 mmHg 85%
    04:00 0°C° 0 mm 4 mps 749 mmHg 88%
    05:00 +1°C° 0 mm 5 mps 749 mmHg 92%
    06:00 +1°C° 0 mm 4 mps 748 mmHg 92%
    07:00 +3°C° 0 mm 4 mps 748 mmHg 93%
    08:00 +3°C° 0 mm 4 mps 748 mmHg 93%
    09:00 +3°C° 0 mm 4 mps 748 mmHg 93%
    10:00 +3°C° 0 mm 4 mps 748 mmHg 93%
    11:00 +3°C° 0 mm 4 mps 748 mmHg 93%
    12:00 +3°C° 0 mm 4 mps 747 mmHg 92%
    13:00 +3°C° 0 mm 4 mps 747 mmHg 91%
    14:00 +4°C° 0 mm 4 mps 747 mmHg 91%
    15:00 +3°C° 0 mm 4 mps 747 mmHg 90%
    16:00 +3°C° 0 mm 4 mps 746 mmHg 90%
    17:00 +3°C° 0 mm 4 mps 746 mmHg 90%
    18:00 +4°C° 0.1 mm 4 mps 746 mmHg 90%
    19:00 +4°C° 0.1 mm 4 mps 746 mmHg 90%
    20:00 +4°C° 0.1 mm 4 mps 746 mmHg 90%
    21:00 +4°C° 0 mm 4 mps 746 mmHg 90%
    22:00 +4°C° 0 mm 4 mps 746 mmHg 90%
    23:00 +4°C° 0 mm 4 mps 746 mmHg 89%

    25 January, Saturday

    Time Temperature Precipitation Wind Pressure Humidity
    00:00 +3°C° 0 mm 5 mps 746 mmHg 88%
    01:00 +3°C° 0 mm 5 mps 746 mmHg 87%
    02:00 +3°C° 0 mm 5 mps 746 mmHg 86%
    03:00 +4°C° 0.1 mm 4 mps 746 mmHg 85%
    04:00 +3°C° 0.1 mm 4 mps 746 mmHg 84%
    05:00 +3°C° 0.1 mm 4 mps 746 mmHg 83%
    06:00 +3°C° 0.1 mm 4 mps 746 mmHg 83%
    07:00 +3°C° 0.1 mm 3 mps 746 mmHg 83%
    08:00 +2°C° 0.1 mm 3 mps 746 mmHg 83%
    09:00 +2°C° 0 mm 3 mps 747 mmHg 82%
    10:00 +2°C° 0 mm 3 mps 747 mmHg 82%
    11:00 +3°C° 0 mm 4 mps 747 mmHg 81%
    12:00 +3°C° 0 mm 4 mps 747 mmHg 78%
    13:00 +3°C° 0 mm 4 mps 747 mmHg 75%
    14:00 +3°C° 0 mm 3 mps 747 mmHg 72%
    15:00 +1°C° 0 mm 4 mps 748 mmHg 75%
    16:00 +1°C° 0 mm 4 mps 748 mmHg 79%
    17:00 0°C° 0 mm 4 mps 748 mmHg 82%
    18:00 0°C° 0 mm 4 mps 748 mmHg 82%
    19:00 0°C° 0 mm 4 mps 748 mmHg 81%
    20:00 0°C° 0 mm 5 mps 749 mmHg 80%
    21:00 -1°C° 0 mm 4 mps 749 mmHg 82%
    22:00 -1°C° 0 mm 4 mps 749 mmHg 83%
    23:00 -1°C° 0 mm 4 mps 750 mmHg 85%

    26 January, Sunday

    Time Temperature Precipitation Wind Pressure Humidity
    00:00 -1°C° 0 mm 4 mps 750 mmHg 87%
    01:00 -1°C° 0 mm 3 mps 751 mmHg 88%
    02:00 -1°C° 0 mm 3 mps 751 mmHg 90%
    03:00 -1°C° 0 mm 3 mps 751 mmHg 91%
    04:00 -1°C° 0 mm 3 mps 752 mmHg 93%
    05:00 -2°C° 0 mm 2 mps 752 mmHg 94%
    06:00 -2°C° 0 mm 2 mps 752 mmHg 95%
    07:00 -2°C° 0 mm 2 mps 753 mmHg 96%
    08:00 -2°C° 0 mm 2 mps 753 mmHg 96%
    09:00 -1°C° 0 mm 2 mps 753 mmHg 93%
    10:00 -1°C° 0 mm 2 mps 754 mmHg 91%
    11:00 +1°C° 0 mm 2 mps 754 mmHg 88%
    12:00 +1°C° 0 mm 2 mps 754 mmHg 88%
    13:00 0°C° 0 mm 3 mps 754 mmHg 87%
    14:00 0°C° 0 mm 3 mps 754 mmHg 87%
    15:00 0°C° 0 mm 3 mps 754 mmHg 88%
    16:00 0°C° 0 mm 3 mps 754 mmHg 89%
    17:00 0°C° 0 mm 3 mps 754 mmHg 91%
    18:00 0°C° 0 mm 3 mps 754 mmHg 91%
    19:00 0°C° 0 mm 3 mps 754 mmHg 92%
    20:00 0°C° 0 mm 3 mps 754 mmHg 93%
    21:00 0°C° 0 mm 3 mps 754 mmHg 92%
    22:00 +1°C° 0 mm 3 mps 754 mmHg 91%
    23:00 +1°C° 0 mm 3 mps 754 mmHg 90%

    27 January, Monday

    Time Temperature Precipitation Wind Pressure Humidity
    00:00 +1°C° 0 mm 3 mps 754 mmHg 90%
    01:00 +1°C° 0 mm 3 mps 754 mmHg 91%
    02:00 +1°C° 0 mm 3 mps 753 mmHg 91%
    03:00 +1°C° 0 mm 3 mps 753 mmHg 93%
    04:00 +2°C° 0 mm 2 mps 753 mmHg 94%
    05:00 +2°C° 0 mm 2 mps 753 mmHg 96%
    06:00 +1°C° 0.2 mm 3 mps 752 mmHg 96%
    07:00 +2°C° 0.2 mm 3 mps 752 mmHg 96%
    08:00 +2°C° 0.2 mm 3 mps 752 mmHg 97%
    09:00 +2°C° 0.1 mm 3 mps 752 mmHg 94%
    10:00 +1°C° 0.1 mm 4 mps 752 mmHg 91%
    11:00 +1°C° 0.1 mm 4 mps 751 mmHg 89%
    12:00 +1°C° 0 mm 4 mps 751 mmHg 84%
    13:00 +1°C° 0 mm 5 mps 750 mmHg 80%
    14:00 +1°C° 0 mm 5 mps 750 mmHg 76%
    15:00 0°C° 0 mm 5 mps 750 mmHg 82%
    16:00 0°C° 0 mm 5 mps 749 mmHg 88%
    17:00 -1°C° 0 mm 5 mps 749 mmHg 95%
    18:00 0°C° 0.1 mm 5 mps 749 mmHg 93%
    19:00 0°C° 0.1 mm 4 mps 749 mmHg 92%
    20:00 +1°C° 0.1 mm 4 mps 749 mmHg 91%
    21:00 +1°C° 0 mm 3 mps 749 mmHg 90%
    22:00 +1°C° 0 mm 3 mps 749 mmHg 89%
    23:00 0°C° 0 mm 3 mps 749 mmHg 88%
    Show more